,,PA_Meas_PMT16A,,PR_Meas_QMR101_102,,RH_Meas_QMH101,,SR_Meas_QMS101,,TA_Meas_QMH101,,GenWind,,GenWind,
time,status,PA,status,PR,status,RH,status,SR,status,TA,status,DirAvg,status,SpdAvg,
2016-11-30, 14:55:04,VALID,918.841,VALID,0,INVALID,109.236,VALID,144.079,VALID,20.9917,VALID,4,VALID,0,
2016-11-30, 14:56:04,VALID,918.851,VALID,0,INVALID,109.77,VALID,147.946,VALID,21.0112,VALID,336,VALID,0,
2016-11-30, 14:57:04,VALID,918.853,VALID,0,VALID,104,VALID,150.955,VALID,21.0697,VALID,337,VALID,0,
2016-11-30, 14:58:04,VALID,918.84,VALID,0,VALID,94.7057,VALID,152.781,VALID,21.1282,VALID,36,VALID,0,
2016-11-30, 14:59:04,VALID,918.886,VALID,0,INVALID,111.096,VALID,153.748,VALID,21.1868,VALID,22,VALID,0,
2016-11-30, 15:00:04,VALID,918.902,VALID,0,VALID,91.3209,VALID,154.393,VALID,21.1868,VALID,14,VALID,1.08984,
2016-11-30, 15:01:04,VALID,918.913,VALID,0,VALID,95.3384,VALID,155.79,VALID,21.2258,VALID,14,VALID,0,
2016-11-30, 15:02:04,VALID,918.959,VALID,0,VALID,104,VALID,158.153,VALID,21.2453,VALID,359,VALID,0,
2016-11-30, 15:03:04,VALID,918.971,VALID,0,VALID,102.703,VALID,161.377,VALID,21.2827,VALID,354,VALID,0,
2016-11-30, 15:04:04,VALID,918.993,VALID,0,VALID,89.8877,VALID,165.567,VALID,21.3217,VALID,342,VALID,0.661719,
2016-11-30, 15:05:04,VALID,918.994,VALID,0,VALID,91.3209,VALID,169.864,VALID,21.3608,VALID,352,VALID,0,
2016-11-30, 15:06:04,VALID,919.005,VALID,0,VALID,93.8519,VALID,173.84,VALID,21.4193,VALID,3,VALID,0,
2016-11-30, 15:07:04,VALID,919.034,VALID,0,VALID,98.2125,VALID,176.956,VALID,21.4388,VALID,339,VALID,0,
2016-11-30, 15:08:04,VALID,919.051,VALID,0,VALID,97.5187,VALID,179.319,VALID,21.4778,VALID,316,VALID,0,
2016-11-30, 15:09:04,VALID,919.077,VALID,0,VALID,104,VALID,181.468,VALID,21.4583,VALID,318,VALID,0,
2016-11-30, 15:10:04,VALID,919.097,VALID,0,INVALID,110.387,VALID,183.509,VALID,21.4973,VALID,5,VALID,0,
2016-11-30, 15:11:04,VALID,919.074,VALID,0,VALID,97.1071,VALID,185.658,VALID,21.5575,VALID,33,VALID,0,
2016-11-30, 15:12:04,VALID,919.122,VALID,0,VALID,89.7124,VALID,186.84,VALID,21.6144,VALID,349,VALID,0,
2016-11-30, 15:13:04,VALID,919.093,VALID,0,VALID,89.9411,VALID,186.948,VALID,21.6924,VALID,336,VALID,0,
2016-11-30, 15:14:04,VALID,919.091,VALID,0,VALID,87.4101,VALID,185.336,VALID,21.7315,VALID,337,VALID,0,
2016-11-30, 15:15:04,VALID,919.103,VALID,0,VALID,86.5029,VALID,183.402,VALID,21.751,VALID,334,VALID,0,
2016-11-30, 15:16:04,VALID,919.135,VALID,0,VALID,84.4751,VALID,182.435,VALID,21.7705,VALID,335,VALID,0,
2016-11-30, 15:17:04,VALID,919.146,VALID,0,VALID,85.2984,VALID,181.361,VALID,21.8095,VALID,329,VALID,0,
2016-11-30, 15:18:04,VALID,919.159,VALID,0,VALID,82.8894,VALID,180.071,VALID,21.8079,VALID,321,VALID,0,
2016-11-30, 15:19:04,VALID,919.177,VALID,0,VALID,83.8957,VALID,179.642,VALID,21.829,VALID,297,VALID,0,
2016-11-30, 15:20:04,VALID,919.146,VALID,0,VALID,84.8029,VALID,180.071,VALID,21.8274,VALID,303,VALID,0,
2016-11-30, 15:21:04,VALID,919.143,VALID,0,VALID,84.1168,VALID,181.683,VALID,21.9071,VALID,303,VALID,0,
2016-11-30, 15:22:04,VALID,919.168,VALID,0,VALID,83.5908,VALID,183.08,VALID,22.0047,VALID,313,VALID,0,
2016-11-30, 15:23:04,VALID,919.145,VALID,0,VALID,84.6199,VALID,185.766,VALID,22.0827,VALID,14,VALID,0,
2016-11-30, 15:24:04,VALID,919.128,VALID,0,VALID,86.3276,VALID,188.022,VALID,22.1608,VALID,357,VALID,0,
2016-11-30, 15:25:04,VALID,919.143,VALID,0,VALID,82.2872,VALID,188.559,VALID,22.1786,VALID,337,VALID,0,
2016-11-30, 15:26:04,VALID,919.123,VALID,0,VALID,82.7293,VALID,185.658,VALID,22.2371,VALID,337,VALID,0,
2016-11-30, 15:27:04,VALID,919.118,VALID,0,VALID,82.9199,VALID,181.146,VALID,22.2762,VALID,9,VALID,0,
2016-11-30, 15:28:04,VALID,919.154,VALID,0,VALID,81.2122,VALID,178.03,VALID,22.3152,VALID,23,VALID,0,
2016-11-30, 15:30:04,VALID,919.137,VALID,0,VALID,84.1473,VALID,182.972,VALID,22.3933,VALID,62,VALID,0,
2016-11-30, 15:31:04,VALID,919.171,VALID,0,VALID,84.3912,VALID,189.741,VALID,22.3754,VALID,47,VALID,0,
2016-11-30, 15:32:04,VALID,919.144,VALID,0,VALID,84.2464,VALID,197.692,VALID,22.395,VALID,63,VALID,0,
2016-11-30, 15:33:04,VALID,919.152,VALID,0,VALID,82.4625,VALID,204.461,VALID,22.3754,VALID,45,VALID,0,
2016-11-30, 15:34:04,VALID,919.156,VALID,0,VALID,82.8742,VALID,207.469,VALID,22.2974,VALID,38,VALID,0,
2016-11-30, 15:35:04,VALID,919.161,VALID,0,VALID,83.2629,VALID,207.039,VALID,22.2193,VALID,64,VALID,0,
2016-11-30, 15:36:04,VALID,919.166,VALID,0,VALID,83.0952,VALID,205.857,VALID,22.1998,VALID,52,VALID,0,
2016-11-30, 15:37:04,VALID,919.203,VALID,0,VALID,84.4217,VALID,207.361,VALID,22.2193,VALID,46,VALID,0,
2016-11-30, 15:38:04,VALID,919.211,VALID,0,VALID,84.78,VALID,211.874,VALID,22.2762,VALID,354,VALID,0,
2016-11-30, 15:39:04,VALID,919.215,VALID,0,VALID,84.7038,VALID,215.957,VALID,22.3559,VALID,33,VALID,0,
2016-11-30, 15:40:04,VALID,919.256,VALID,0,VALID,80.4118,VALID,215.849,VALID,22.2974,VALID,49,VALID,0,
2016-11-30, 15:41:04,VALID,919.254,VALID,0,VALID,81.8984,VALID,213.163,VALID,22.2371,VALID,20,VALID,0,
2016-11-30, 15:42:04,VALID,919.288,VALID,0,VALID,83.1943,VALID,211.229,VALID,22.2176,VALID,7,VALID,0,
2016-11-30, 15:43:04,VALID,919.268,VALID,0,VALID,83.9186,VALID,212.733,VALID,22.2371,VALID,3,VALID,0,
2016-11-30, 15:44:04,VALID,919.255,VALID,0,VALID,84.719,VALID,218.428,VALID,22.3347,VALID,5,VALID,0,
2016-11-30, 15:45:04,VALID,919.243,VALID,0,VALID,82.4167,VALID,226.164,VALID,22.4323,VALID,41,VALID,0,
2016-11-30, 15:46:04,VALID,919.228,VALID,0,VALID,83.0114,VALID,233.577,VALID,22.4323,VALID,53,VALID,0,
2016-11-30, 15:47:04,VALID,919.206,VALID,0,VALID,83.8728,VALID,240.238,VALID,22.4908,VALID,6,VALID,0,
2016-11-30, 15:48:04,VALID,919.203,VALID,0,VALID,81.0598,VALID,246.363,VALID,22.4925,VALID,15,VALID,0,
2016-11-30, 15:49:04,VALID,919.222,VALID,0,VALID,82.7141,VALID,250.768,VALID,22.5103,VALID,31,VALID,0,
2016-11-30, 15:50:04,VALID,919.244,VALID,0,VALID,82.3634,VALID,252.916,VALID,22.6079,VALID,360,VALID,0,
2016-11-30, 15:51:04,VALID,919.258,VALID,0,VALID,79.7104,VALID,251.842,VALID,22.647,VALID,9,VALID,0,
2016-11-30, 15:52:04,VALID,919.263,VALID,0,VALID,81.3571,VALID,247.33,VALID,22.725,VALID,342,VALID,0,
2016-11-30, 15:53:04,VALID,919.276,VALID,0,VALID,79.8782,VALID,242.387,VALID,22.7641,VALID,330,VALID,0,
2016-11-30, 15:54:04,VALID,919.275,VALID,0,VALID,80.8235,VALID,239.379,VALID,22.8226,VALID,14,VALID,0,
2016-11-30, 15:55:04,VALID,919.306,VALID,0,VALID,82.3176,VALID,241.205,VALID,22.9007,VALID,43,VALID,0,
2016-11-30, 15:56:04,VALID,919.275,VALID,0,VALID,81.7611,VALID,249.156,VALID,22.9787,VALID,1,VALID,0,
2016-11-30, 15:57:04,VALID,919.281,VALID,0,VALID,81.2199,VALID,256.999,VALID,23.016,VALID,13,VALID,0,
2016-11-30, 15:58:04,VALID,919.255,VALID,0,VALID,78.4754,VALID,262.371,VALID,23.0959,VALID,340,VALID,0,
2016-11-30, 15:59:04,VALID,919.309,VALID,0,VALID,79.962,VALID,264.628,VALID,23.0959,VALID,29,VALID,0,
2016-11-30, 16:00:04,VALID,919.26,VALID,0,VALID,80.3203,VALID,265.702,VALID,23.016,VALID,23,VALID,0,
2016-11-30, 16:01:04,VALID,919.288,VALID,0,VALID,81.0217,VALID,267.851,VALID,22.9592,VALID,25,VALID,0,
2016-11-30, 16:02:04,VALID,919.311,VALID,0,VALID,82.5616,VALID,273.653,VALID,22.9397,VALID,30,VALID,0,
2016-11-30, 16:03:04,VALID,919.315,VALID,0,VALID,79.7333,VALID,280.959,VALID,22.9592,VALID,320,VALID,0,
2016-11-30, 16:04:04,VALID,919.337,VALID,0,VALID,79.5503,VALID,289.339,VALID,22.977,VALID,322,VALID,0,
2016-11-30, 16:05:04,VALID,919.324,VALID,0,VALID,79.619,VALID,302.017,VALID,23.0551,VALID,340,VALID,0,
2016-11-30, 16:06:04,VALID,919.3,VALID,0,VALID,77.1718,VALID,319.637,VALID,23.1349,VALID,21,VALID,0,
2016-11-30, 16:07:04,VALID,919.299,VALID,0,VALID,78.0638,VALID,326.191,VALID,23.1739,VALID,22,VALID,0,
2016-11-30, 16:08:04,VALID,919.284,VALID,0,VALID,78.9176,VALID,319.637,VALID,23.1722,VALID,303,VALID,0,
2016-11-30, 16:09:04,VALID,919.255,VALID,0,VALID,78.3687,VALID,320.497,VALID,23.2502,VALID,331,VALID,0,
2016-11-30, 16:10:04,VALID,919.251,VALID,0,VALID,75.9902,VALID,322.861,VALID,23.3283,VALID,351,VALID,0,
2016-11-30, 16:11:04,VALID,919.277,VALID,0,VALID,76.6839,VALID,319.637,VALID,23.3478,VALID,351,VALID,0,
